Location: Berbisdorf
(50.7638°N, 12.9442°E)
Time: 04:23:01
(UTC+00:00)

GEOS 3 Rocket - Pass Details

Date: 06 October 2020
Orbit: 770 x 849 km, 115.0° (Epoch: 21 October)

Event Time Altitude Azimuth Distance (km) Brightness Sun altitude
Rises 17:33:56 0° 200° (SSW) 3,339 7.0 -10.2°
Reaches altitude 10° 17:38:15 10° 235° (SW) 2,434 6.9 -10.9°
Maximum altitude 17:39:44 11° 251° (WSW) 2,362 7.2 -11.1°
Drops below altitude 10° 17:41:14 10° 268° (W) 2,451 7.6 -11.4°
Sets 17:45:39 0° 302° (WNW) 3,408 8.1 -12.1°
